This is the latest recevied weather packets stored in our database for station/object NC4M. If no packets are shown the sender has not sent any weather packets the latest 10 day(s).
| Time | Temp. | Humidity | Pressure | Rain* | Wind** | Luminosity | Snow |
|---|---|---|---|---|---|---|---|
| 1777755981 | 15.56° C | 34% | 1019.2 hPa | 0 mm | - | 590 W/m² | - |
| 1777754466 | 15.56° C | 35% | 1019.5 hPa | 0 mm | - | 151 W/m² | - |
| 1777754163 | 15.56° C | 33% | 1019.5 hPa | 0 mm | - | 141 W/m² | - |
| 1777753860 | 15° C | 35% | 1019.6 hPa | 0 mm | - | 723 W/m² | - |
| 1777753555 | 15.56° C | 36% | 1019.7 hPa | 0 mm | - | 161 W/m² | - |
| 1777753254 | 16.67° C | 32% | 1019.7 hPa | 0 mm | - | 148 W/m² | - |
| 1777752950 | 17.22° C | 31% | 1019.8 hPa | 0 mm | - | 189 W/m² | - |
| 1777752646 | 16.67° C | 37% | 1019.8 hPa | 0 mm | - | 174 W/m² | - |
| 1777752342 | 16.67° C | 35% | 1019.8 hPa | 0 mm | - | 156 W/m² | - |
| 1777752040 | 16.67° C | 33% | 1019.9 hPa | 0 mm | - | 123 W/m² | - |
| 1777751738 | 16.11° C | 35% | 1020.1 hPa | 0 mm | - | 130 W/m² | - |
| 1777750524 | 15.56° C | 39% | 1020.1 hPa | 0 mm | - | 110 W/m² | - |
| 1777750221 | 15.56° C | 36% | 1020.2 hPa | 0 mm | - | 112 W/m² | - |
| 1777749916 | 15° C | 38% | 1020.3 hPa | 0 mm | - | 176 W/m² | - |
| 1777749614 | 15.56° C | 35% | 1020 hPa | 0 mm | - | 193 W/m² | - |
| 1777749311 | 16.67° C | 34% | 1019.9 hPa | 0 mm | - | 210 W/m² | - |
| 1777749009 | 16.67° C | 36% | 1020.3 hPa | 0 mm | - | 136 W/m² | - |
| 1777748706 | 15.56° C | 34% | 1020.2 hPa | 0 mm | - | 740 W/m² | - |
| 1777748098 | 16.11° C | 33% | 1020.2 hPa | 0 mm | - | 680 W/m² | - |
| 1777746883 | 16.67° C | 32% | 1020.2 hPa | 0 mm | - | 224 W/m² | - |
| 1777746578 | 16.67° C | 34% | 1020.1 hPa | 0 mm | - | 998 W/m² | - |
| 1777745970 | 15.56° C | 35% | 1020.1 hPa | 0 mm | - | 973 W/m² | - |
| 1777745669 | 15° C | 35% | 1020.5 hPa | 0 mm | - | 1019 W/m² | - |
| 1777745367 | 15.56° C | 37% | 1020.3 hPa | 0 mm | - | 245 W/m² | - |
| 1777745064 | 15° C | 39% | 1020.3 hPa | 0 mm | - | 270 W/m² | - |
* Rain latest hour (hover to see other rain measurements)
** Current wind speed in m/s (hover to see current wind gust speed)